Regional Weather Roundup
Issued by NWS Charleston, WV

Home | Current Version | Previous Version | Text Only | Print | Product List | Glossary Off
Versions: 1 2 3 4 5 6 7 8 9 10 11 12 13 14 15 16 17 18 19 20 21 22 23 24 25 26 27 28 29 30 31 32 33 34 35 36 37 38 39 40 41 42 43 44 45 46 47 48 49 50

000
ASUS41 KRLX 260510
RWRRLX
West Virginia Regional Weather Roundup
National Weather Service Charleston WV
100 AM EDT WED JUL 26 2017

Note: "fair" indicates few or no clouds below 12,000 feet with no
significant weather and/or obstructions to visibility.

WVZ003-260600-
Northern Panhandle of West Virginia

CITY           SKY/WX    TMP DP  RH WIND       PRES   REMARKS
WHEELING       CLEAR     62  58  86 SE3       30.22F
$$

WVZ009-260600-
Northwest West Virginia

CITY           SKY/WX    TMP DP  RH WIND       PRES   REMARKS
PARKERSBURG    FOG       60  59  96 CALM      30.23F VSB 1/4
$$

WVZ006-260600-
Western West Virginia

CITY           SKY/WX    TMP DP  RH WIND       PRES   REMARKS
HUNTINGTON     CLEAR     65  58  78 NE3       30.19S
$$

WVZ015-260600-
West Central West Virginia

CITY           SKY/WX    TMP DP  RH WIND       PRES   REMARKS
CHARLESTON     CLEAR     62  59  90 NE3       30.20S
$$

WVZ022-031-260600-
North Central West Virginia

CITY           SKY/WX    TMP DP  RH WIND       PRES   REMARKS
CLARKSBURG     CLEAR     58  56  93 CALM      30.22F
MORGANTOWN     CLEAR     59  57  93 CALM      30.24F
$$

WVZ025-035-042-045-260600-
Southern West Virginia

CITY           SKY/WX    TMP DP  RH WIND       PRES   REMARKS
BECKLEY        CLEAR     60  55  83 CALM      30.24F
LOGAN            N/A     64  61  88 CALM      30.20S
BLUEFIELD      CLEAR     64  56  75 CALM      30.26F
LEWISBURG      CLEAR     59  56  91 CALM      30.25S
$$

WVZ047-260600-
Northern Mountains of West Virginia

CITY           SKY/WX    TMP DP  RH WIND       PRES   REMARKS
ELKINS         CLEAR     55  53  93 CALM      30.27S
$$

WVZ052-260600-
Eastern Panhandle of West Virginia

CITY           SKY/WX    TMP DP  RH WIND       PRES   REMARKS
MARTINSBURG    CLEAR     61  59  93 CALM      30.21S
PETERSBURG     CLEAR     62  60  93 CALM      30.25S
$$



USA.gov is the U.S. government's official web portal to all federal, state and local government web resources and services.